Home   Weather   Oklahoma City   Past weeks

Flag for USA Past Weather in Oklahoma City, Oklahoma, USA — Yesterday and Last 2 Weeks

Now
36 °F

Passing clouds.


Feels Like: 28 °F
Forecast: 25 / 49 °F
Wind: 12 mph from North

Location: Will Rogers World Airport

Current Time: Feb 24, 2017 at 10:48:04 pm

Latest Report: Feb 24, 2017 at 9:52 pm


Visibility: 10 mi

Pressure: 30.15 "Hg

Humidity: 57%

Dew Point: 22 °F

Location of Oklahoma CityLocation

Past Weather in Oklahoma City — Graph

°F

Oklahoma City Temperature Yesterday

Maximum temperature yesterday: 87 °F (at 2:52 pm)
Minimum temperature yesterday: 47 °F (at 11:52 pm)
Average temperature yesterday: 66 °F

High & Low Weather Summary for the Past Weeks

 TemperatureHumidityPressure
High88 °F (Feb 11, 3:52 pm)100% (Feb 19, 3:00 am)30.41 "Hg (Feb 19, 3:00 am)
Low33 °F (Feb 15, 6:52 am)17% (Feb 11, 4:52 pm)29.33 "Hg (Feb 23, 4:52 pm)
Average54 °F65%29.91 "Hg
* Reported Feb 9 8:52 pm — Feb 24 8:52 pm, Oklahoma City, Weather by CustomWeather, © 2017

Note: Actual official high and low records may vary slightly from our data, if they occured in-between our weather recording intervals... More about our weather records

Advertising

Oklahoma City Weather History for the Previous 24 Hours

Scroll right to see more
 ConditionsComfort  
Time TempWeatherWind HumidityBarometerVisibility
8:52 pm
Fri, Feb 24
38 °FPassing clouds.17 mph53%30.10 "Hg10 mi
7:52 pm40 °FPassing clouds.16 mph47%30.08 "Hg10 mi
6:52 pm43 °FPassing clouds.24 mph43%30.04 "Hg10 mi
5:52 pm46 °FPassing clouds.20 mph37%30.00 "Hg10 mi
4:52 pm49 °FPassing clouds.18 mph35%29.96 "Hg10 mi
3:52 pm50 °FPassing clouds.23 mph32%29.92 "Hg10 mi
2:52 pm50 °FSunny.21 mph35%29.89 "Hg10 mi
1:52 pm50 °FSunny.21 mph36%29.89 "Hg10 mi
12:52 pm48 °FSunny.20 mph39%29.91 "Hg10 mi
11:52 am46 °FSunny.22 mph42%29.92 "Hg10 mi
10:52 am44 °FPassing clouds.23 mph45%29.90 "Hg10 mi
9:52 am41 °FPassing clouds.24 mph53%29.87 "Hg10 mi
8:52 am39 °FPassing clouds.25 mph60%29.85 "Hg10 mi
7:52 am37 °FPassing clouds.20 mph70%29.81 "Hg10 mi
6:52 am37 °FPassing clouds.22 mph70%29.78 "Hg10 mi
5:52 am38 °FPassing clouds.22 mph73%29.74 "Hg10 mi
4:52 am39 °FPassing clouds.25 mph76%29.70 "Hg10 mi
3:52 am41 °FPassing clouds.23 mph76%29.67 "Hg10 mi
2:52 am42 °FPassing clouds.22 mph76%29.69 "Hg10 mi
1:52 am44 °FOvercast.23 mph76%29.65 "Hg10 mi
12:52 am45 °FPassing clouds.24 mph76%29.59 "Hg10 mi
11:52 pm
Thu, Feb 23
47 °FClear.23 mph69%29.54 "Hg10 mi
10:52 pm55 °FClear.28 mph59%29.49 "Hg10 mi
Weather by CustomWeather, © 2017

See weather overviewHow to use our weather pages